Location: Wayah Bald
(35.1806°N, 83.5603°W)
Time: 20:18:41
(UTC-04:00)

Daily predictions for brighter satellites

Satellite Brightness Start Highest point End
(mag) Time Altitude Azimuth Time Altitude Azimuth Time Altitude Azimuth
Cosmos 1727 Rocket 4.1 20:03:48 10° N 20:10:00 85° W 20:16:10 10° S
Cosmos 1844 Rocket 2.7 20:07:52 10° S 20:13:24 61° ESE 20:18:58 10° NNE
Resurs 01 Rocket 2.6 20:12:45 10° SE 20:16:27 27° ENE 20:20:10 10° NNE
Cosmos 2278 Rocket 3.1 20:15:32 10° SSE 20:20:10 26° ESE 20:24:48 10° NE
BREEZE-M DEB (TANK) 2.5 20:18:36 10° SW 20:20:57 55° SE 20:25:16 10° NE
Cosmos 1812 Rocket 4.1 20:17:43 10° SSE 20:21:46 36° E 20:25:48 10° NNE
Meteor 2-15 Rocket 4.4 20:18:09 10° N 20:24:19 79° E 20:30:26 10° S
FREGAT/IRIS 2.6 20:22:45 10° SSE 20:25:49 86° E 20:28:54 10° N
CZ-2C R/B3.420:29:45SSE20:29:45SSE20:25:16ENE
Cosmos 1000 Rocket 4.5 20:25:21 10° N 20:31:29 63° E 20:37:37 10° SSE
Cosmos 2150 Rocket 3.9 20:27:36 10° S 20:32:41 66° ESE 20:37:47 10° NNE
H-2A R/B 3.3 20:29:07 10° SE 20:32:42 38° ENE 20:36:20 10° N
Meteor 1-24 Rocket 4.1 20:28:19 10° N 20:33:26 39° ENE 20:38:42 10° SE
Cosmos 1378 3.6 20:29:57 10° N 20:33:30 37° E 20:36:59 10° SSE
Spot 2 Rocket 3.8 20:30:24 10° SE 20:35:13 44° ENE 20:40:04 10° N
Meteor 2-5 Rocket 3.7 20:30:00 10° N 20:35:43 75° E 20:41:32 10° SSE
FENGYUN 3A 3.6 20:30:41 10° SSE 20:36:03 71° ENE 20:41:27 10° N
CZ-3 Stage 3 4.4 19:24:15 10° WSW 20:37:28 72° S 20:45:16 15° E
Cosmos 2112 Rocket 4.4 20:32:17 10° NNW 20:37:32 68° WSW 20:42:41 10° S
Cosmos 2123 Rocket 4.5 20:32:13 10° N 20:38:04 38° ENE 20:43:51 10° SE
Cosmos 2228 4.4 20:35:24 10° SSW 20:39:25 42° W 20:43:29 10° N
Cosmos 1707 2.7 20:36:53 10° N 20:40:48 86° E 20:44:40 10° S
Delta 2 Rocket 3.4 20:36:34 10° W 20:41:17 83° N 20:44:17 18° E
USA 215 3.3 20:38:04 10° NE 20:44:33 62° SE 20:50:58 10° SSW
RESURS DK-1 3.8 20:42:14 10° N 20:45:24 21° ENE 20:46:35 19° E
Cosmos 1898 Rocket 4.0 20:43:21 10° SSW 20:48:37 65° WNW 20:53:54 10° N
Cosmos 1766 3.3 20:45:04 10° S 20:48:51 54° E 20:52:38 10° NNE
Cosmos 2082 Rocket 4.0 20:49:58 10° NNE 20:52:27 13° NE 20:53:25 12° ENE
Cosmos 990 Rocket 3.9 20:47:40 10° S 20:52:54 77° ESE 20:58:10 10° NNE
Envisat 4.1 20:51:33 20° E 20:53:11 24° ENE 20:57:10 10° NNE
Cosmos 192 4.4 20:50:02 10° NNW 20:54:58 79° WSW 20:59:52 10° SSE
COSMOS 2406 3.3 20:51:18 10° NNW 20:57:04 85° WSW 21:02:46 10° SSE
Cosmos 1125 Rocket 4.4 20:53:07 10° SSE 20:57:18 25° E 21:01:30 10° NE
Cosmos 1544 3.5 21:04:08 36° ESE 21:04:23 36° E 21:07:46 10° NNE
Helios 1A 3.2 21:04:20 28° SE 21:06:05 45° ENE 21:10:04 10° N
Resurs 1-3 3.5 21:02:10 10° SSE 21:06:32 87° E 21:10:57 10° NNW
Cosmos 1844 4.4 21:04:54 10° SW 21:10:33 58° WNW 21:16:17 10° NNE
Helios 1B rocket 2.3 21:07:37 10° NNE 21:11:44 65° ESE 21:15:48 10° S
CZ-3B DEB 3.7 21:01:46 10° SW 21:14:10 59° NW 21:19:45 10° NNE
CZ-2D R/B 3.4 21:16:40 14° S 21:19:57 71° W 21:23:49 10° NNW
Lacrosse 4 Rocket 3.6 21:16:42 10° WSW 21:20:08 26° WNW 21:23:34 10° N
Cosmos 2344 4.0 21:13:25 10° SW 21:21:03 67° NW 21:29:23 10° NNE
ERS-1 Rocket 4.3 21:23:35 23° NE 21:23:35 23° NE 21:26:44 10° NNE
SL-27 R/B 2.3 21:20:29 10° NNW 21:24:03 76° ENE 21:24:08 75° E
Meteor 1-29 2.8 21:21:54 10° NNE 21:25:09 73° NE 21:25:09 73° NE
Yuri Rocket 3.8 21:21:52 10° WSW 21:25:36 33° S 21:25:53 32° S
Tiangong 1 2.7 21:23:52 10° NW 21:25:53 26° N 21:25:53 26° N
Cosmos 1805 3.1 21:24:06 16° S 21:27:10 83° E 21:31:05 10° N
Cosmos 2098 Rocket 4.2 21:21:46 10° S 21:28:22 67° E 21:35:52 10° NNE
USA 186 4.0 21:31:19 14° NNW 21:31:19 14° NNW 21:31:44 10° NNW
Okean 3 Rocket 3.5 21:32:09 10° N 21:36:32 88° W 21:37:35 52° S
Lacrosse 5 2.7 21:38:38 10° WSW 21:43:32 49° NW 21:47:58 13° NNE
Cosmos 1758 3.4 21:43:44 68° WSW 21:43:59 71° W 21:47:58 10° N
Cosmos 1867 4.1 21:41:45 10° SSW 21:45:27 42° S 21:45:27 42° S
Cosmos 1939 Rocket 3.8 21:50:45 41° N 21:50:45 41° N 21:53:32 10° N
Resurs 01 Rocket 3.9 21:49:25 10° SSW 21:52:51 22° W 21:56:19 10° NW
GP-B 3.2 21:53:44 74° W 21:53:44 74° W 21:58:06 10° N
Cosmos 1953 2.9 21:55:18 55° WNW 21:55:18 55° WNW 21:59:07 10° N
Cosmos 2278 Rocket 3.6 21:58:49 10° SW 22:04:00 36° WNW 22:09:14 10° N
Cosmos 2100 Rocket 3.8 22:04:49 67° SSE 22:05:44 83° E 22:12:06 10° N
Cosmos 1833 Rocket 3.5 22:04:40 10° N 22:08:29 38° NNE 22:08:29 38° NNE
H-2A R/B 4.5 22:17:09 12° NNE 22:17:09 12° NNE 22:17:41 10° NNE
Cosmos 2297 3.9 22:09:18 10° SSW 22:14:57 67° WNW 22:20:40 10° NNE
H-2A R/B (2) 3.4 22:12:48 10° WSW 22:15:05 31° SSW 22:15:05 31° SSW
Cosmos 1802 Rocket 4.4 22:23:38 50° N 22:23:38 50° N 22:28:05 10° N
RESURS DK-1 4.5 22:19:56 10° NW 22:22:33 24° W 22:22:33 24° W
Cosmos 2061 Rocket 4.1 22:28:29 73° NW 22:28:29 73° NW 22:34:31 10° N
Envisat 4.3 22:31:44 34° WSW 22:31:58 34° W 22:36:35 10° NNW
Cosmos 2082 Rocket 3.1 22:31:33 10° NNW 22:35:17 43° NNW 22:35:17 43° NNW
USA 267 4.1 22:59:17 42° N 22:59:17 42° N 23:03:44 10° NW
